Weather History for Indian Mountain, AK

Change the Weather History Date:

Tuesday, March 5, 2013

  Actual Average Record
Temperature  
Mean Temperature 12 °F -  
Max Temperature 18 °F 11 °F 26 °F (2008)
Min Temperature 7 °F 0 °F -23 °F (2012)
Degree Days  
Heating Degree Days 52    
Moisture  
Dew Point 1 °F    
Average Humidity 63    
Maximum Humidity 73    
Minimum Humidity 53    
Precipitation  
Precipitation 0.00 in - - ()
Sea Level Pressure  
Sea Level Pressure 30.18 in    
Wind  
Wind Speed 4 mph (South)    
Max Wind Speed 9 mph    
Max Gust Speed -    
Visibility 10 miles    
Events      
Averages and records for this station are not official NWS values.
T = Trace of Precipitation, MM = Missing Value Source: NWS Daily Summary

Daily Weather History Graph

Daily Weather History Graph

Search for Another Location

Airport:

Trip Planner

Search our weather history database for the weather conditions in past years. The results will help you decide how hot, cold, wet, or windy it might be!

Date:

Astronomy

Mar. 05, 2013 Rise Set
Actual Time 8:10 AM AKST 6:43 PM AKST
Civil Twilight 7:19 AM AKST 7:34 PM AKST
Nautical Twilight 6:20 AM AKST 8:34 PM AKST
Astronomical Twilight 5:17 AM AKST 9:37 PM AKST
Moon 5:44 AM AKST (3/5) 10:22 AM AKST (3/5)
Length of Visible Light 12h 15m
Length of Day
10h 32m
Last Quarter, 39% of the Moon is Illuminated
Mar 5
Last Quarter
Mar 11
New
Mar 19
First Quarter
Mar 27
Full
Apr 2
Last Quarter

Hourly Weather History & Observations

Time (AKST) Temp. Windchill Dew Point Humidity Pressure Visibility Wind Dir Wind Speed Gust Speed Precip Events Conditions
12:55 AM 10.8 °F 4.5 °F 0.3 °F 63% 30.35 in 10.0 mi SSW 3.5 mph - N/A   Overcast
1:55 AM 9.7 °F - 0.1 °F 65% 30.34 in 10.0 mi South 2.3 mph - N/A   Overcast
3:55 AM 7.7 °F 1.0 °F -0.2 °F 70% 30.32 in 10.0 mi SSW 3.5 mph - N/A   Mostly Cloudy
4:55 AM 7.9 °F - -0.2 °F 70% 30.29 in 10.0 mi Variable 1.2 mph - N/A   Overcast
5:55 AM 7.0 °F -3.3 °F -0.0 °F 73% 30.29 in 10.0 mi WSW 5.8 mph - N/A   Mostly Cloudy
6:55 AM 7.5 °F - 0.1 °F 72% 30.27 in 10.0 mi North 2.3 mph - N/A   Mostly Cloudy
7:55 AM 9.5 °F 3.0 °F 1.0 °F 69% 30.26 in 10.0 mi SSW 3.5 mph - N/A   Mostly Cloudy
8:55 AM 10.4 °F - 1.4 °F 67% 30.11 in 10.0 mi SSE 2.3 mph - N/A   Overcast
9:55 AM 10.0 °F - 1.0 °F 67% 30.24 in 10.0 mi Variable 1.2 mph - N/A   Overcast
10:55 AM 11.5 °F - 1.2 °F 63% 30.22 in 10.0 mi Variable 1.2 mph - N/A   Clear
11:55 AM 15.1 °F 6.4 °F 1.9 °F 56% 30.21 in 10.0 mi SE 5.8 mph - N/A   Clear
12:55 PM 15.4 °F 4.6 °F 2.3 °F 56% 30.20 in 10.0 mi SE 8.1 mph - N/A   Clear
1:55 PM 17.4 °F 10.4 °F 3.2 °F 54% 30.17 in 10.0 mi SSE 4.6 mph - N/A   Mostly Cloudy
2:55 PM 18.1 °F 8.9 °F 3.6 °F 53% 30.14 in 10.0 mi SE 6.9 mph - N/A   Partly Cloudy
3:55 PM 18.5 °F 7.5 °F 3.7 °F 53% 30.13 in 10.0 mi SSE 9.2 mph - N/A   Clear
4:55 PM 17.1 °F 5.8 °F 3.6 °F 56% 30.11 in 10.0 mi SE 9.2 mph - N/A   Clear
5:55 PM 15.4 °F 5.6 °F 3.0 °F 58% 30.11 in 10.0 mi SSE 6.9 mph - N/A   Clear
6:55 PM 13.6 °F 6.0 °F 2.1 °F 60% 30.10 in 10.0 mi South 4.6 mph - N/A   Clear
7:55 PM 12.7 °F 5.0 °F 1.8 °F 62% 30.08 in 10.0 mi SW 4.6 mph - N/A   Clear
8:55 PM 11.3 °F 1.9 °F 1.2 °F 64% 30.07 in 10.0 mi SW 5.8 mph - N/A   Clear
9:55 PM 8.1 °F - 0.1 °F 70% 30.05 in 10.0 mi Variable 1.2 mph - N/A   Clear
10:55 PM 8.4 °F 1.8 °F -0.9 °F 66% 30.04 in 10.0 mi SW 3.5 mph - N/A   Clear
11:55 PM 9.5 °F 1.2 °F -0.2 °F 65% 30.02 in 10.0 mi Variable 4.6 mph - N/A   Clear